Weather History for KMGN - November, 2013

Change the Weather History Date:

Thursday, November 7, 2013

  Actual Average (KPLN) Record (KPLN)
Temperature  
Mean Temperature 37 °F -  
Max Temperature 40 °F 44 °F 60 °F (1949)
Min Temperature 34 °F 28 °F 2 °F (1991)
Degree Days  
Heating Degree Days 28    
Moisture  
Dew Point 31 °F    
Average Humidity 76    
Maximum Humidity 93    
Minimum Humidity 62    
Precipitation  
Precipitation 0.00 in - - ()
Sea Level Pressure  
Sea Level Pressure 30.00 in    
Wind  
Wind Speed 8 mph (WNW)    
Max Wind Speed 14 mph    
Max Gust Speed 22 mph    
Visibility 9 miles    
Events Rain , Snow    
Averages and records for this station are not official NWS values.
T = Trace of Precipitation, MM = Missing Value Source: NWS Daily Summary

Daily Weather History Graph

Daily Weather History Graph

Search for Another Location

Airport or City:

Trip Planner

Search our weather history database for the weather conditions in past years. The results will help you decide how hot, cold, wet, or windy it might be!

Date:

Astronomy

Nov. 07, 2013 Rise Set
Actual Time 7:27 AM EST 5:18 PM EST
Civil Twilight 6:56 AM EST 5:49 PM EST
Nautical Twilight 6:20 AM EST 6:25 PM EST
Astronomical Twilight 5:46 AM EST 6:59 PM EST
Moon 11:38 AM EST (11/7) 9:27 PM EST (11/7)
Length of Visible Light 10h 53m
Length of Day
9h 50m
Waxing Crescent, 22% of the Moon is Illuminated
Nov 7
Waxing Crescent
Nov 10
First Quarter
Nov 17
Full
Nov 25
Last Quarter
Dec 2
New

Hourly Weather History & Observations

Time (EST) Temp. Windchill Dew Point Humidity Pressure Visibility Wind Dir Wind Speed Gust Speed Precip Events Conditions
12:14 AM 39.6 °F 33.5 °F 32.2 °F 75% 29.96 in 10.0 mi West 9.2 mph - N/A   Overcast
12:34 AM 39.6 °F 32.5 °F 32.2 °F 75% 29.96 in 10.0 mi WNW 11.5 mph 18.4 mph N/A   Overcast
12:54 AM 39.4 °F 32.7 °F 32.2 °F 75% 29.96 in 10.0 mi West 10.4 mph - N/A   Overcast
1:14 AM 39.6 °F 34.0 °F 32.2 °F 75% 29.97 in 10.0 mi West 8.1 mph 17.3 mph N/A   Overcast
1:34 AM 39.6 °F 33.5 °F 32.2 °F 75% 29.96 in 10.0 mi WNW 9.2 mph - N/A   Overcast
1:54 AM 39.6 °F 33.5 °F 32.0 °F 74% 29.96 in 10.0 mi WNW 9.2 mph 16.1 mph N/A   Overcast
2:14 AM 38.5 °F 34.1 °F 31.5 °F 76% 29.97 in 10.0 mi West 5.8 mph - N/A   Overcast
2:34 AM 38.5 °F 35.0 °F 31.3 °F 75% 29.97 in 10.0 mi West 4.6 mph - N/A   Overcast
2:54 AM 39.0 °F 33.4 °F 32.0 °F 76% 29.97 in 10.0 mi West 8.1 mph - N/A   Overcast
3:14 AM 39.4 °F 34.5 °F 32.0 °F 75% 29.97 in 10.0 mi WNW 6.9 mph - N/A   Overcast
3:34 AM 39.2 °F 34.2 °F 31.5 °F 74% 29.97 in 10.0 mi West 6.9 mph 16.1 mph N/A   Overcast
3:54 AM 39.0 °F 32.8 °F 31.6 °F 75% 29.97 in 10.0 mi West 9.2 mph - N/A   Overcast
4:14 AM 39.2 °F 34.2 °F 31.8 °F 75% 29.97 in 10.0 mi West 6.9 mph 17.3 mph N/A   Overcast
4:35 AM 39.4 °F 34.5 °F 32.0 °F 75% 29.98 in 10.0 mi West 6.9 mph 18.4 mph N/A   Overcast
4:54 AM 38.5 °F 31.6 °F 31.5 °F 76% 29.98 in 10.0 mi WNW 10.4 mph - N/A   Overcast
5:14 AM 38.3 °F 33.2 °F 30.7 °F 74% 29.98 in 10.0 mi West 6.9 mph - N/A   Overcast
5:35 AM 38.8 °F 32.6 °F 30.9 °F 73% 29.98 in 10.0 mi West 9.2 mph 16.1 mph N/A   Overcast
5:54 AM 39.2 °F 33.0 °F 31.5 °F 74% 29.99 in 10.0 mi WNW 9.2 mph 16.1 mph N/A   Overcast
6:14 AM 39.0 °F 32.8 °F 30.7 °F 72% 29.99 in 10.0 mi West 9.2 mph - N/A   Overcast
6:35 AM 39.4 °F 33.8 °F 31.3 °F 73% 29.99 in 10.0 mi WNW 8.1 mph - N/A   Overcast
6:54 AM 39.6 °F 33.5 °F 31.5 °F 73% 29.99 in 10.0 mi WNW 9.2 mph - N/A   Overcast
7:14 AM 39.6 °F 34.0 °F 31.3 °F 72% 29.99 in 10.0 mi WNW 8.1 mph - N/A   Overcast
7:35 AM 39.6 °F 34.0 °F 31.1 °F 72% 29.99 in 10.0 mi WNW 8.1 mph - N/A   Overcast
7:54 AM 39.6 °F 32.5 °F 30.7 °F 71% 29.99 in 10.0 mi West 11.5 mph - N/A   Overcast
8:14 AM 39.6 °F 32.5 °F 30.9 °F 71% 30.00 in 10.0 mi WNW 11.5 mph - N/A   Overcast
8:35 AM 39.6 °F 34.0 °F 31.1 °F 72% 30.01 in 10.0 mi West 8.1 mph - N/A   Overcast
8:54 AM 39.6 °F 34.0 °F 30.9 °F 71% 30.01 in 10.0 mi WNW 8.1 mph - N/A   Overcast
9:14 AM 39.6 °F 32.5 °F 30.7 °F 71% 30.01 in 10.0 mi WNW 11.5 mph - N/A   Overcast
9:35 AM 39.6 °F 33.5 °F 30.4 °F 70% 30.01 in 10.0 mi WNW 9.2 mph 17.3 mph N/A   Overcast
9:54 AM 39.6 °F 34.7 °F 30.0 °F 69% 30.02 in 10.0 mi West 6.9 mph 17.3 mph N/A   Overcast
10:14 AM 39.6 °F 32.5 °F 29.8 °F 68% 30.01 in 10.0 mi West 11.5 mph 16.1 mph N/A   Overcast
10:34 AM 39.6 °F 32.5 °F 30.0 °F 69% 30.02 in 10.0 mi WNW 11.5 mph - N/A   Overcast
10:54 AM 39.6 °F 31.7 °F 30.4 °F 70% 30.02 in 10.0 mi WNW 13.8 mph - N/A   Overcast
11:15 AM 39.7 °F 32.3 °F 30.4 °F 69% 30.02 in 10.0 mi WNW 12.7 mph 16.1 mph N/A   Overcast
11:34 AM 40.1 °F 34.7 °F 30.0 °F 67% 30.02 in 10.0 mi WNW 8.1 mph 19.6 mph N/A   Overcast
11:54 AM 40.5 °F 34.6 °F 29.5 °F 65% 30.02 in 10.0 mi West 9.2 mph - N/A   Overcast
12:15 PM 39.6 °F 33.0 °F 30.6 °F 70% 30.02 in 10.0 mi WNW 10.4 mph 17.3 mph N/A   Overcast
12:34 PM 39.6 °F 34.7 °F 30.9 °F 71% 30.01 in 10.0 mi WSW 6.9 mph 10.4 mph N/A   Overcast
12:54 PM 38.8 °F 32.6 °F 32.4 °F 78% 30.01 in 7.0 mi West 9.2 mph 17.3 mph N/A Snow Light Snow
1:14 PM 39.6 °F 33.5 °F 31.3 °F 72% 30.01 in 10.0 mi West 9.2 mph 17.3 mph N/A   Overcast
1:34 PM 39.6 °F 34.0 °F 30.6 °F 70% 30.00 in 10.0 mi WNW 8.1 mph - N/A   Overcast
1:54 PM 39.6 °F 33.0 °F 30.2 °F 69% 30.00 in 10.0 mi West 10.4 mph - N/A   Overcast
2:14 PM 39.6 °F 33.0 °F 29.5 °F 67% 30.00 in 10.0 mi WNW 10.4 mph - N/A   Overcast
2:34 PM 39.6 °F 34.0 °F 29.1 °F 66% 30.00 in 10.0 mi West 8.1 mph - N/A   Overcast
2:54 PM 39.6 °F 34.7 °F 28.6 °F 65% 30.00 in 10.0 mi West 6.9 mph 16.1 mph N/A   Overcast
3:14 PM 39.6 °F 33.5 °F 27.7 °F 62% 30.00 in 10.0 mi West 9.2 mph 16.1 mph N/A   Overcast
3:34 PM 39.6 °F 33.0 °F 27.9 °F 63% 30.00 in 10.0 mi West 10.4 mph - N/A   Overcast
3:55 PM 39.6 °F 32.5 °F 28.8 °F 65% 30.00 in 10.0 mi West 11.5 mph 20.7 mph N/A   Overcast
4:14 PM 39.6 °F 33.0 °F 29.1 °F 66% 30.00 in 10.0 mi West 10.4 mph 17.3 mph N/A   Overcast
4:34 PM 39.6 °F 34.7 °F 29.1 °F 66% 30.00 in 10.0 mi West 6.9 mph - N/A   Overcast
4:55 PM 39.6 °F 33.5 °F 29.5 °F 67% 30.00 in 10.0 mi WNW 9.2 mph - N/A   Overcast
5:14 PM 37.8 °F 29.8 °F 30.4 °F 75% 30.01 in 5.0 mi WNW 12.7 mph 17.3 mph N/A Snow Light Snow
5:34 PM 37.0 °F 31.6 °F 32.7 °F 84% 30.01 in 10.0 mi NW 6.9 mph - N/A Snow Light Snow
5:55 PM 34.7 °F 28.8 °F 32.0 °F 90% 30.02 in 3.0 mi West 6.9 mph - N/A Snow Light Snow
6:14 PM 36.1 °F 30.6 °F 32.2 °F 86% 30.02 in 7.0 mi NW 6.9 mph - N/A Rain Light Rain
6:34 PM 35.1 °F 29.3 °F 32.0 °F 89% 30.02 in 2.5 mi NW 6.9 mph 18.4 mph N/A Snow Light Snow
6:55 PM 34.9 °F 29.0 °F 32.0 °F 89% 30.03 in 2.5 mi West 6.9 mph 18.4 mph N/A Snow Light Snow
7:14 PM 34.7 °F - 32.5 °F 92% 30.03 in 5.0 mi Calm Calm - N/A Snow Light Snow
7:34 PM 36.9 °F 29.1 °F 32.0 °F 83% 30.04 in 10.0 mi NW 11.5 mph 21.9 mph N/A   Mostly Cloudy
7:55 PM 36.0 °F 28.5 °F 30.9 °F 82% 30.03 in 10.0 mi NW 10.4 mph - N/A   Mostly Cloudy
8:14 PM 35.8 °F 30.9 °F 31.3 °F 84% 30.04 in 10.0 mi West 5.8 mph - N/A   Overcast
8:34 PM 34.7 °F 28.1 °F 32.0 °F 90% 30.04 in 1.5 mi WNW 8.1 mph - N/A Snow Light Snow
8:55 PM 35.1 °F 31.0 °F 32.0 °F 89% 30.04 in 10.0 mi NW 4.6 mph - N/A   Overcast
9:14 PM 34.7 °F 31.8 °F 31.8 °F 89% 30.03 in 7.0 mi WNW 3.5 mph - N/A   Overcast
9:34 PM 34.7 °F 28.8 °F 31.8 °F 89% 30.04 in 1.8 mi NNW 6.9 mph 18.4 mph N/A Snow Light Snow
9:55 PM 34.7 °F 30.6 °F 32.5 °F 92% 30.04 in 4.0 mi West 4.6 mph - N/A Snow Light Snow
10:14 PM 34.7 °F 31.8 °F 32.9 °F 93% 30.04 in 10.0 mi WSW 3.5 mph - N/A   Mostly Cloudy
10:34 PM 34.7 °F 31.8 °F 32.9 °F 93% 30.05 in 10.0 mi WNW 3.5 mph - N/A   Overcast
10:54 PM 34.7 °F 31.8 °F 32.4 °F 91% 30.05 in 4.0 mi West 3.5 mph - N/A Snow Light Snow
11:14 PM 34.7 °F - 32.5 °F 92% 30.04 in 10.0 mi Calm Calm - N/A   Mostly Cloudy
11:34 PM 34.7 °F - 32.9 °F 93% 30.05 in 10.0 mi Calm Calm - N/A   Scattered Clouds
11:54 PM 34.7 °F 31.8 °F 32.0 °F 90% 30.05 in 10.0 mi West 3.5 mph - N/A   Mostly Cloudy